[[{"header":{"parameterUnit":"m.s-1","parameterCategory":2,"la1":30.2991,"la2":30.254,"lo1":-89.0895,"lo2":-89.0444,"dy":0.0017,"dx":0.0017,"nx":28,"ny":28,"refTime":"2024-08-08T09:00:00:Z","depth":"0","parameterNumber":2,"parameterNumberName":"U-component_of_CURRENTS"},"data":[0,0,0,0,0,0,0,0,0,0,0,0,0,0,0,0,0,0,0,0,0,0,0,0,0,0,0,0,0,0,0,0,0,0,0,0,0,0,0,0,0,0,0,0,0,0,0,0,0,0,0,0,0,0,0,0,0,0,0.2324,0.2324,0,0.2285,0.2284,0.2283,0.221,0.2209,0.2208,0.2208,0.1974,0.1968,0.1963,0,0,0,0,0,0,0,0,0,0,0,0,0,0.2259,0.2261,0.2324,0.2324,0.2324,0.2285,0.2284,0.2282,0.221,0.2209,0.2208,0.2207,0.1976,0.1969,0.1962,0,0,0,0,0,0,0,0,0,0,0,0,0,0.2254,0.2261,0.2324,0.2288,0.2285,0.2285,0.2284,0.2282,0.221,0.2209,0.2208,0.2207,0.1978,0.197,0.1962,0.1934,0,0,0.1936,0.1933,0,0,0,0,0,0,0,0,0.2254,0.2256,0.2293,0.2291,0.2288,0.2257,0.2176,0.2158,0.2211,0.2231,0.2208,0.2206,0.2056,0.2041,0.2029,0.1923,0.1913,0.1936,0.1931,0.1927,0.1925,0,0,0,0,0,0,0,0.2255,0.2256,0.2301,0.2294,0.229,0.2249,0.2247,0.2172,0.2141,0.2229,0.2226,0.2233,0.2052,0.2038,0.2023,0.1909,0.1936,0.1928,0.1923,0.192,0.1906,0.191,0,0,0,0,0,0,0.228,0.2258,0.2303,0.2301,0.2276,0.2252,0.2249,0.2262,0.2146,0.2131,0.2234,0.223,0.2052,0.2032,0.2014,0.2024,0.1927,0.1919,0.1915,0.1901,0.1907,0.1912,0,0,0,0,0,0,0.2278,0.2284,0.2304,0.2283,0.2283,0.2255,0.227,0.2262,0.2251,0.2153,0.2133,0.2232,0.2051,0.2026,0.1987,0.2012,0.1916,0.1908,0.1896,0.1903,0.1909,0.201,0,0,0,0,0,0,0.2277,0.2284,0.2296,0.2285,0.2286,0.2312,0.2272,0.2263,0.226,0.2254,0.2144,0.2121,0.2048,0.2,0.1979,0.1999,0.1902,0.189,0.1899,0.1907,0.2001,0.2019,0.2035,0,0,0,0,0,0.2275,0.2291,0.2297,0.2302,0.2306,0.2314,0.2309,0.2279,0.2262,0.2262,0.2215,0.2125,0.2041,0.1996,0.197,0.1988,0.1886,0.1896,0.1906,0.1993,0.2016,0.2035,0,0,0,0,0,0,0.2254,0.2286,0.2292,0.2313,0.2323,0.2304,0.2299,0.2291,0.2256,0.2244,0.2153,0.2128,0.212,0.2058,0.2012,0.2027,0.196,0.1966,0.2036,0.2056,0.2073,0.2051,0.1895,0,0,0,0,0,0.2266,0.2289,0.231,0.2324,0.2334,0.2323,0.2321,0.2311,0.2286,0.2269,0.2208,0.2163,0.2145,0.2101,0.2073,0.2042,0.2019,0.2057,0.2074,0.2088,0.2064,0.2097,0.2112,0.1946,0.1945,0.1945,0,0,0.2257,0.2281,0.2289,0.2323,0.2321,0.2328,0.2316,0.2322,0.2321,0.2246,0.2219,0.2214,0.2162,0.2159,0.2148,0.2096,0.2137,0.2101,0.2113,0.208,0.2109,0.2124,0.2137,0.1953,0.1951,0.195,0,0,0.2246,0.228,0.2292,0.231,0.2333,0.2334,0.2345,0.2347,0.2342,0.2337,0.2315,0.2331,0.2261,0.2251,0.2231,0.2325,0.2246,0.2333,0.2357,0.2391,0.2403,0.2413,0.2441,0.2452,0.2317,0.2317,0.2317,0,0.2229,0.2255,0.2293,0.2309,0.2316,0.2341,0.2343,0.2351,0.2342,0.2342,0.234,0.234,0.2305,0.2311,0.2365,0.2353,0.236,0.2267,0.2407,0.2416,0.2424,0.245,0.2462,0.2323,0.2323,0.2322,0.2321,0,0.2226,0.2247,0.2255,0.2287,0.2304,0.2313,0.2344,0.2358,0.2369,0.2376,0.2411,0.2414,0.2402,0.2434,0.2413,0.2474,0.246,0.2439,0.2336,0.2446,0.2469,0.2479,0.2332,0.233,0.2328,0.2327,0,0,0.2166,0.2238,0.2235,0.2243,0.2294,0.2296,0.2325,0.2348,0.2348,0.2394,0.2402,0.2453,0.2476,0.2463,0.2476,0.2513,0.2613,0.2502,0.2501,0.2498,0.2691,0.2625,0.2629,0.2614,0.2616,0.2617,0.2694,0,0.2139,0.216,0.2208,0.2209,0.2217,0.2265,0.2281,0.2312,0.2342,0.2362,0.2421,0.2437,0.2479,0.2489,0.2547,0.2584,0.2639,0.2594,0.2611,0.2611,0.2512,0.2638,0.2571,0.2627,0.2703,0.2704,0.2705,0,0.21,0.2125,0.2129,0.2167,0.2174,0.2179,0.2203,0.2226,0.2284,0.2311,0.2368,0.2408,0.2484,0.251,0.2626,0.2595,0.2657,0.2698,0.2701,0.2594,0.2562,0.2527,0.2641,0.2535,0.2719,0.2718,0.2717,0,0.2011,0.2055,0.2053,0.2067,0.2123,0.2124,0.2147,0.2198,0.2209,0.2276,0.2288,0.239,0.2418,0.2529,0.2624,0.2633,0.274,0.2752,0.2758,0.2754,0.2672,0.2656,0.2645,0.285,0.285,0.2849,0.2849,0,0.1952,0.1939,0.2007,0.2001,0.1988,0.2053,0.2043,0.2082,0.2135,0.214,0.2249,0.2268,0.2426,0.2503,0.2616,0.2702,0.2735,0.2775,0.2773,0.2712,0.27,0.2579,0.2524,0.2852,0.2852,0.2851,0.2851,0,0.1841,0.1891,0.1882,0.1934,0.1943,0.1927,0.1969,0.1968,0.2027,0.2039,0.2059,0.2174,0.2278,0.2421,0.2578,0.2654,0.2686,0.2785,0.2698,0.2684,0.2586,0.2541,0.2441,0.2406,0.282,0.2819,0.2818,0,0.1786,0.1776,0.1809,0.1805,0.1821,0.1824,0.1828,0.1897,0.1903,0.1973,0.1969,0.207,0.2138,0.2334,0.249,0.2661,0.2618,0.269,0.2699,0.2573,0.2523,0.2431,0.2404,0.266,0.2657,0.2656,0.2654,0,0.1686,0.1697,0.1702,0.1697,0.1692,0.1689,0.1703,0.1695,0.1772,0.179,0.1828,0.1887,0.2067,0.2186,0.2385,0.252,0.2538,0.2656,0.2559,0.2418,0.2285,0.2251,0.2611,0.2638,0.264,0.2641,0.2642,0.2643,0.1611,0.1588,0.1607,0.1587,0.1581,0.156,0.1533,0.1562,0.1565,0.1583,0.1683,0.1738,0.1897,0.2169,0.2311,0.2418,0.2409,0.2409,0.2377,0.2305,0.2216,0.2527,0.2519,0.252,0.2521,0.2522,0.2522,0,0.154,0.1528,0.1504,0.1486,0.1441,0.147,0.1454,0.1425,0.1406,0.145,0.1491,0.1592,0.1734,0.1939,0.2098,0.2108,0.2147,0.2089,0.196,0.1965,0.2279,0.2215,0.2098,0.2098,0.2098,0.2099,0.2099,0.2099,0.1511,0.1466,0.1451,0.1364,0.1341,0.1279,0.1255,0.1225,0.124,0.1231,0.126,0.133,0.1431,0.1598,0.1716,0.1797,0.1719,0.1657,0.1659,0.1876,0.1903,0.1929,0.1856,0.1666,0.1666,0.1318,0.1315,0.1313]},{"header":{"parameterUnit":"m.s-1","parameterCategory":2,"la1":30.2991,"la2":30.254,"lo1":-89.0895,"lo2":-89.0444,"dy":0.0017,"dx":0.0017,"nx":28,"ny":28,"refTime":"2024-08-08T09:00:00:Z","depth":"0","parameterNumber":3,"parameterNumberName":"V-component_of_CURRENTS"},"data":[0,0,0,0,0,0,0,0,0,0,0,0,0,0,0,0,0,0,0,0,0,0,0,0,0,0,0,0,0,0,0,0,0,0,0,0,0,0,0,0,0,0,0,0,0,0,0,0,0,0,0,0,0,0,0,0,0,0,-0.0163,-0.0164,0,-0.0199,-0.02,-0.02,-0.0241,-0.0242,-0.0242,-0.0243,-0.0292,-0.0293,-0.0293,0,0,0,0,0,0,0,0,0,0,0,0,0,-0.0118,-0.0119,-0.0163,-0.0164,-0.0164,-0.0199,-0.02,-0.02,-0.0241,-0.0242,-0.0243,-0.0243,-0.0292,-0.0293,-0.0293,0,0,0,0,0,0,0,0,0,0,0,0,0,-0.0143,-0.0119,-0.0163,-0.019,-0.0192,-0.0199,-0.02,-0.02,-0.0241,-0.0242,-0.0243,-0.0244,-0.0292,-0.0292,-0.0293,-0.0278,0,0,-0.0296,-0.0297,0,0,0,0,0,0,0,0,-0.0142,-0.0145,-0.0185,-0.0188,-0.0191,-0.0218,-0.0202,-0.0227,-0.024,-0.0221,-0.0243,-0.0244,-0.0268,-0.0271,-0.0274,-0.0281,-0.0283,-0.0296,-0.0297,-0.0297,-0.0298,0,0,0,0,0,0,0,-0.014,-0.0143,-0.0176,-0.0186,-0.0189,-0.0196,-0.0201,-0.0207,-0.0238,-0.0223,-0.0226,-0.0232,-0.027,-0.0273,-0.0275,-0.0283,-0.0296,-0.0297,-0.0298,-0.0298,-0.0259,-0.0257,0,0,0,0,0,0,-0.0137,-0.0142,-0.0175,-0.0178,-0.017,-0.0196,-0.0201,-0.0207,-0.0238,-0.0243,-0.0231,-0.0233,-0.0271,-0.0274,-0.0277,-0.0238,-0.0297,-0.0298,-0.0299,-0.026,-0.0258,-0.0257,0,0,0,0,0,0,-0.0136,-0.014,-0.0174,-0.0161,-0.0166,-0.0196,-0.0202,-0.0207,-0.0214,-0.0243,-0.025,-0.0232,-0.0272,-0.0276,-0.0271,-0.0241,-0.0299,-0.03,-0.0262,-0.026,-0.0257,-0.0175,0,0,0,0,0,0,-0.0134,-0.0139,-0.0137,-0.0161,-0.0167,-0.0176,-0.0201,-0.0207,-0.0216,-0.022,-0.0247,-0.0252,-0.0273,-0.0269,-0.0272,-0.0244,-0.03,-0.0264,-0.0261,-0.0258,-0.018,-0.017,-0.0161,0,0,0,0,0,-0.0133,-0.0131,-0.0137,-0.0141,-0.0165,-0.0175,-0.0178,-0.0202,-0.0215,-0.0213,-0.0222,-0.0252,-0.0252,-0.0268,-0.0272,-0.0244,-0.0266,-0.0262,-0.0258,-0.0184,-0.0172,-0.0162,0,0,0,0,0,0,-0.0113,-0.0136,-0.0143,-0.0148,-0.0158,-0.0183,-0.0184,-0.0197,-0.0203,-0.0205,-0.0233,-0.0238,-0.0222,-0.0241,-0.0259,-0.0222,-0.0262,-0.0259,-0.0204,-0.0193,-0.0184,-0.0175,-0.0301,0,0,0,0,0,-0.0105,-0.0109,-0.0129,-0.0132,-0.0136,-0.0156,-0.0162,-0.0176,-0.0187,-0.0192,-0.0206,-0.0213,-0.0207,-0.0209,-0.0213,-0.0193,-0.0205,-0.0176,-0.0167,-0.0159,-0.0153,-0.0133,-0.0121,-0.0245,-0.0245,-0.0245,0,0,-0.0097,-0.0111,-0.0112,-0.0127,-0.0137,-0.013,-0.0162,-0.0168,-0.0154,-0.0194,-0.0177,-0.0184,-0.0195,-0.0171,-0.0165,-0.0185,-0.013,-0.0155,-0.0148,-0.0146,-0.0128,-0.0116,-0.0105,-0.0242,-0.0242,-0.0243,0,0,-0.0082,-0.0095,-0.009,-0.0093,-0.0105,-0.0111,-0.011,-0.0125,-0.0127,-0.0111,-0.0127,-0.0111,-0.0117,-0.0106,-0.0104,-0.0046,-0.0083,-0.0052,0.0001,0.0021,0.0031,0.004,0.0042,0.005,-0.0047,-0.0047,-0.0047,0,-0.0069,-0.0068,-0.0089,-0.0081,-0.0077,-0.0098,-0.0083,-0.0081,-0.0088,-0.0077,-0.0097,-0.0069,-0.008,-0.0034,-0.0013,-0.0024,-0.0031,-0.004,0.0033,0.0042,0.0049,0.0049,0.0057,-0.0042,-0.0043,-0.0043,-0.0044,0,-0.0048,-0.0043,-0.004,-0.0033,-0.0028,-0.002,-0.002,-0.0008,-0.001,-0.0007,0.003,0.0027,0.0041,0.0049,0.0034,0.0091,0.0063,0.0042,0.0005,0.0067,0.0062,0.0069,-0.0036,-0.0038,-0.0039,-0.004,0,0,-0.0024,-0.0025,-0.0021,-0.0009,-0.0001,0.0004,0.0038,0.0061,0.0083,0.0094,0.0129,0.0159,0.015,0.0153,0.0145,0.0169,0.0218,0.0131,0.0129,0.0131,0.0249,0.0216,0.022,0.0207,0.0208,0.021,0.0224,0,0.0003,0.0022,0.0021,0.0057,0.0069,0.0073,0.0104,0.0125,0.0138,0.0166,0.0185,0.0207,0.0191,0.0197,0.0226,0.0215,0.024,0.0215,0.019,0.0189,0.0152,0.0229,0.0254,0.0268,0.0231,0.0232,0.0233,0,0.0034,0.004,0.0071,0.0097,0.0104,0.0127,0.0171,0.0195,0.0232,0.024,0.0274,0.027,0.0316,0.0283,0.0319,0.03,0.0285,0.0278,0.0278,0.0223,0.017,0.02,0.0281,0.0312,0.0243,0.0242,0.0241,0,0.0061,0.0083,0.0108,0.0117,0.0142,0.0164,0.0183,0.0219,0.0243,0.0284,0.03,0.0343,0.0355,0.0366,0.0348,0.0333,0.0373,0.0345,0.0307,0.0303,0.0307,0.0301,0.0415,0.0376,0.0376,0.0376,0.0376,0,0.0095,0.0116,0.0119,0.0134,0.0169,0.0182,0.0226,0.0248,0.0285,0.032,0.0334,0.0365,0.0374,0.0389,0.0375,0.0366,0.0394,0.0335,0.0317,0.0336,0.0332,0.0341,0.0286,0.0377,0.0376,0.0376,0.0376,0,0.012,0.0124,0.015,0.0172,0.018,0.0205,0.0239,0.027,0.0298,0.0343,0.0356,0.0387,0.0406,0.0408,0.0418,0.039,0.0368,0.0371,0.0383,0.0367,0.0347,0.0292,0.0255,0.0249,0.034,0.034,0.0339,0,0.0132,0.0147,0.0169,0.0182,0.019,0.0221,0.0245,0.0276,0.0306,0.0357,0.0382,0.0407,0.0435,0.0437,0.0413,0.0397,0.0357,0.0376,0.0358,0.0373,0.03,0.0225,0.0217,0.0398,0.0398,0.0398,0.0398,0,0.015,0.0157,0.0172,0.0196,0.0219,0.0251,0.0284,0.0309,0.035,0.0383,0.0426,0.045,0.0454,0.0465,0.043,0.0405,0.0352,0.0373,0.0408,0.0374,0.0282,0.0259,0.0343,0.0398,0.0398,0.0398,0.0398,0.0398,0.0155,0.0167,0.0183,0.0208,0.0238,0.0279,0.0312,0.0348,0.0395,0.0465,0.0469,0.0531,0.0529,0.0496,0.0456,0.0419,0.0337,0.041,0.0347,0.0277,0.026,0.0331,0.0348,0.0347,0.0347,0.0347,0.0347,0,0.0153,0.0168,0.0193,0.0228,0.0266,0.0283,0.0337,0.0377,0.0433,0.0509,0.0555,0.0628,0.0623,0.059,0.0532,0.0456,0.0391,0.0403,0.0353,0.0352,0.0466,0.0465,0.0487,0.0487,0.0487,0.0487,0.0487,0.0487,0.0154,0.0168,0.0183,0.0238,0.0273,0.0332,0.0368,0.0429,0.0492,0.0607,0.0689,0.0746,0.0765,0.0623,0.0553,0.0493,0.0414,0.0318,0.0291,0.0434,0.0432,0.0431,0.0428,0.0441,0.044,0.0235,0.0233,0.0231]}],[{"header":{"parameterUnit":"m.s-1","parameterCategory":2,"la1":30.2991,"la2":30.254,"lo1":-89.0895,"lo2":-89.0444,"dy":0.0017,"dx":0.0017,"nx":28,"ny":28,"refTime":"2024-08-08T09:00:00:Z","depth":"2","parameterNumber":2,"parameterNumberName":"U-component_of_CURRENTS"},"data":[0,0,0,0,0,0,0,0,0,0,0,0,0,0,0,0,0,0,0,0,0,0,0,0,0,0,0,0,0,0,0,0,0,0,0,0,0,0,0,0,0,0,0,0,0,0,0,0,0,0,0,0,0,0,0,0,0,0,-0.0122,-0.0122,0,-0.0081,-0.0081,-0.008,0.0002,0.0003,0.0005,0.0006,0.0077,0.0077,0.0078,0,0,0,0,0,0,0,0,0,0,0,0,0,-0.0117,-0.0118,-0.0123,-0.0122,-0.0122,-0.0081,-0.0081,-0.008,0.0001,0.0003,0.0005,0.0007,0.0077,0.0077,0.0078,0,0,0,0,0,0,0,0,0,0,0,0,0,-0.01,-0.0118,-0.0123,-0.0078,-0.0073,-0.0081,-0.0081,-0.008,0.0001,0.0003,0.0005,0.0007,0.0076,0.0077,0.0078,0.004,0,0,0.008,0.0081,0,0,0,0,0,0,0,0,-0.0101,-0.01,-0.0085,-0.0081,-0.0076,-0.0044,-0.0053,-0.0039,0.0001,-0.0025,0.0006,0.0009,0.0036,0.004,0.0046,0.0043,0.0046,0.0081,0.0081,0.0081,0.0082,0,0,0,0,0,0,0,-0.0103,-0.0102,-0.0104,-0.0085,-0.0079,-0.0055,-0.005,-0.005,-0.0005,-0.0023,-0.0017,-0.0016,0.0039,0.0045,0.0048,0.0047,0.0081,0.0081,0.0082,0.0082,0.0208,0.0211,0,0,0,0,0,0,-0.0115,-0.0103,-0.0106,-0.0103,-0.0086,-0.0057,-0.0052,-0.0055,-0.0006,0.0003,-0.0018,-0.0013,0.0042,0.0047,0.0051,0.0141,0.0081,0.0082,0.0083,0.0205,0.0209,0.0212,0,0,0,0,0,0,-0.0115,-0.0116,-0.0107,-0.0103,-0.01,-0.006,-0.0064,-0.0056,-0.0015,-0.0003,0.0008,0.0017,0.0044,0.005,0.0111,0.0139,0.0082,0.0083,0.0202,0.0206,0.021,0.0236,0,0,0,0,0,0,-0.0115,-0.0116,-0.0111,-0.0104,-0.0101,-0.0099,-0.0066,-0.0056,-0.0021,-0.0012,0.003,0.0037,0.0046,0.011,0.0112,0.0139,0.0084,0.0198,0.0204,0.0209,0.0232,0.0241,0.0248,0,0,0,0,0,-0.0115,-0.0123,-0.0112,-0.0111,-0.01,-0.0099,-0.0095,-0.0057,-0.0021,-0.001,0.0051,0.0037,0.0146,0.0113,0.0114,0.0143,0.0196,0.0202,0.0208,0.0228,0.0239,0.0248,0,0,0,0,0,0,-0.0116,-0.0116,-0.0103,-0.0108,-0.0098,-0.0085,-0.0069,-0.0045,0.0008,0.0038,0.0061,0.0072,0.0136,0.0144,0.0107,0.0203,0.0172,0.0179,0.0187,0.0197,0.0205,0.018,0.0085,0,0,0,0,0,-0.0118,-0.0118,-0.0116,-0.0115,-0.0109,-0.0083,-0.0071,-0.0045,-0.0006,0.0021,0.0056,0.011,0.0155,0.0182,0.0213,0.0251,0.0234,0.028,0.0288,0.0295,0.0281,0.0292,0.0299,0.0233,0.0233,0.0233,0,0,-0.0118,-0.0116,-0.0115,-0.0114,-0.0096,-0.0082,-0.0068,-0.0042,-0.0012,0.0017,0.0088,0.0131,0.0174,0.0233,0.0263,0.0247,0.0309,0.0303,0.0308,0.029,0.0299,0.0305,0.031,0.0237,0.0236,0.0236,0,0,-0.0116,-0.0113,-0.0108,-0.0099,-0.0076,-0.0065,-0.0052,-0.0021,0.0015,0.0072,0.012,0.0182,0.0242,0.028,0.0307,0.0377,0.0351,0.0407,0.0425,0.0437,0.0441,0.0444,0.0433,0.0435,0.0413,0.0413,0.0413,0,-0.0106,-0.0106,-0.0106,-0.0093,-0.0076,-0.0053,-0.0031,-0.0006,0.005,0.0084,0.0105,0.0227,0.0258,0.0331,0.0373,0.0389,0.0391,0.0375,0.0442,0.0445,0.0448,0.0435,0.0437,0.0415,0.0415,0.0415,0.0415,0,-0.0105,-0.009,-0.0084,-0.0059,-0.0044,-0.0024,0.0004,0.0043,0.0093,0.0123,0.021,0.0261,0.0338,0.0364,0.0391,0.0448,0.0441,0.0443,0.0401,0.0455,0.044,0.0441,0.0418,0.0418,0.0417,0.0416,0,0,-0.0104,-0.0087,-0.0075,-0.0055,-0.0019,-0.0008,0.0043,0.0087,0.0135,0.019,0.0252,0.0337,0.0375,0.0409,0.0452,0.0463,0.0489,0.0472,0.0471,0.0432,0.0508,0.0505,0.0505,0.051,0.051,0.0511,0.0488,0,-0.0088,-0.0068,-0.0056,-0.0013,0.0002,0.004,0.0081,0.0131,0.0182,0.0243,0.0295,0.037,0.039,0.0447,0.0463,0.0492,0.0495,0.0494,0.0485,0.0484,0.0452,0.0508,0.0412,0.0385,0.0489,0.0489,0.0489,0,-0.0077,-0.0066,-0.0031,0.0012,0.0026,0.0064,0.0141,0.018,0.0255,0.0302,0.0373,0.0415,0.0477,0.0474,0.0511,0.0519,0.0517,0.0511,0.051,0.0493,0.0484,0.0352,0.0383,0.0491,0.0491,0.0491,0.049,0,-0.0076,-0.004,-0.0011,0.0004,0.0051,0.0099,0.014,0.0215,0.0255,0.035,0.0392,0.0461,0.051,0.0518,0.0532,0.0535,0.0536,0.0536,0.0515,0.0513,0.0419,0.0409,0.0532,0.0532,0.0532,0.0532,0.0532,0,-0.0069,-0.0037,-0.0001,0.0018,0.0069,0.0112,0.0185,0.0238,0.0314,0.0365,0.0433,0.0477,0.0525,0.0539,0.0535,0.0534,0.0544,0.0516,0.0514,0.043,0.0422,0.0503,0.05,0.0531,0.0531,0.0531,0.0531,0,-0.0065,-0.0043,-0.001,0.0046,0.0072,0.0116,0.02,0.0243,0.0324,0.0393,0.0428,0.0498,0.054,0.0551,0.0561,0.0543,0.0533,0.0519,0.041,0.0397,0.0496,0.0495,0.0501,0.0501,0.0501,0.0501,0.0501,0,-0.0067,-0.0052,0.0004,0.0025,0.0062,0.0127,0.0171,0.0252,0.0295,0.0397,0.0422,0.0491,0.0532,0.0539,0.0528,0.0514,0.053,0.0404,0.0395,0.0499,0.0496,0.0495,0.0495,0.0274,0.0272,0.027,0.0269,0,-0.0083,-0.0054,-0.0038,0.0014,0.0064,0.011,0.0183,0.0211,0.0307,0.0369,0.0442,0.0481,0.0508,0.0469,0.0455,0.0427,0.0408,0.0374,0.0506,0.0312,0.0287,0.0284,0.029,0.0255,0.0256,0.0258,0.0258,0.0259,-0.01,-0.0095,-0.0066,-0.0004,0.0042,0.0102,0.0155,0.021,0.0279,0.0363,0.0398,0.0418,0.033,0.0293,0.0298,0.0329,0.0361,0.0295,0.0298,0.0303,0.0296,0.0275,0.0237,0.0238,0.0239,0.024,0.0241,0,-0.0137,-0.011,-0.0083,-0.0017,0.004,0.0099,0.0166,0.0206,0.0287,0.0288,0.035,0.0209,0.0158,0.0151,0.0185,0.0188,0.0178,0.0171,0.0131,0.0143,0.0153,0.014,0.0038,0.0039,0.0039,0.0039,0,0,-0.0167,-0.0149,-0.012,-0.0028,0.0049,0.0151,0.021,0.0245,0.0238,0.0218,0.0189,0.0096,0.0061,-0.0009,-0.0009,0.0052,0.0101,0.0043,0.0187,0.0146,0.0157,0.0189,0.0176,0,0,0,0,0]},{"header":{"parameterUnit":"m.s-1","parameterCategory":2,"la1":30.2991,"la2":30.254,"lo1":-89.0895,"lo2":-89.0444,"dy":0.0017,"dx":0.0017,"nx":28,"ny":28,"refTime":"2024-08-08T09:00:00:Z","depth":"2","parameterNumber":3,"parameterNumberName":"V-component_of_CURRENTS"},"data":[0,0,0,0,0,0,0,0,0,0,0,0,0,0,0,0,0,0,0,0,0,0,0,0,0,0,0,0,0,0,0,0,0,0,0,0,0,0,0,0,0,0,0,0,0,0,0,0,0,0,0,0,0,0,0,0,0,0,-0.0208,-0.0209,0,-0.03,-0.0301,-0.0302,-0.0373,-0.0373,-0.0374,-0.0375,-0.0413,-0.0414,-0.0414,0,0,0,0,0,0,0,0,0,0,0,0,0,-0.0101,-0.0103,-0.0208,-0.0209,-0.021,-0.03,-0.0301,-0.0303,-0.0373,-0.0373,-0.0374,-0.0375,-0.0413,-0.0414,-0.0414,0,0,0,0,0,0,0,0,0,0,0,0,0,-0.0166,-0.0103,-0.0208,-0.0256,-0.0261,-0.03,-0.0302,-0.0303,-0.0372,-0.0373,-0.0374,-0.0375,-0.0413,-0.0414,-0.0414,-0.0399,0,0,-0.0416,-0.0417,0,0,0,0,0,0,0,0,-0.0162,-0.017,-0.0248,-0.0253,-0.0259,-0.0326,-0.0278,-0.0333,-0.0372,-0.033,-0.0375,-0.0376,-0.0378,-0.0382,-0.0398,-0.0401,-0.0403,-0.0417,-0.0417,-0.0417,-0.0417,0,0,0,0,0,0,0,-0.0157,-0.0166,-0.0245,-0.0249,-0.0256,-0.0276,-0.0286,-0.0289,-0.0347,-0.0334,-0.0339,-0.0349,-0.0381,-0.0397,-0.0399,-0.0403,-0.0417,-0.0417,-0.0418,-0.0418,-0.0512,-0.0514,0,0,0,0,0,0,-0.0145,-0.0162,-0.0242,-0.0248,-0.0212,-0.0277,-0.0288,-0.0303,-0.0348,-0.0357,-0.0348,-0.0352,-0.0396,-0.0399,-0.0401,-0.0458,-0.0417,-0.0418,-0.0418,-0.0509,-0.0512,-0.0514,0,0,0,0,0,0,-0.0142,-0.0151,-0.0238,-0.0206,-0.0219,-0.0278,-0.0294,-0.0305,-0.0347,-0.036,-0.0367,-0.0382,-0.0397,-0.04,-0.0447,-0.0457,-0.0418,-0.0419,-0.0507,-0.051,-0.0513,-0.0525,0,0,0,0,0,0,-0.0139,-0.015,-0.0163,-0.0206,-0.022,-0.0273,-0.0294,-0.0306,-0.0349,-0.0356,-0.039,-0.0394,-0.0398,-0.0446,-0.0448,-0.0457,-0.0419,-0.0504,-0.0508,-0.0512,-0.0522,-0.0528,-0.0533,0,0,0,0,0,-0.0134,-0.0144,-0.0164,-0.0174,-0.0235,-0.0273,-0.0283,-0.0327,-0.035,-0.0369,-0.0412,-0.0394,-0.0472,-0.0449,-0.045,-0.0459,-0.0502,-0.0507,-0.0512,-0.0519,-0.0527,-0.0533,0,0,0,0,0,0,-0.0099,-0.0154,-0.0176,-0.0201,-0.024,-0.0285,-0.0308,-0.0338,-0.0387,-0.0404,-0.0418,-0.0425,-0.0469,-0.0472,-0.0446,-0.0504,-0.0485,-0.049,-0.049,-0.0497,-0.0503,-0.046,-0.042,0,0,0,0,0,-0.0097,-0.0128,-0.0174,-0.0197,-0.0217,-0.0267,-0.0292,-0.0326,-0.037,-0.0394,-0.0419,-0.0454,-0.0484,-0.0499,-0.0523,-0.0548,-0.0537,-0.056,-0.0565,-0.057,-0.054,-0.0576,-0.0581,-0.053,-0.053,-0.053,0,0,-0.0088,-0.0124,-0.014,-0.0193,-0.0229,-0.0256,-0.0286,-0.0332,-0.0356,-0.0387,-0.0434,-0.0472,-0.0499,-0.0538,-0.0557,-0.0543,-0.0581,-0.0576,-0.0579,-0.0546,-0.0581,-0.0586,-0.059,-0.0533,-0.0532,-0.0532,0,0,-0.008,-0.012,-0.0142,-0.0177,-0.0237,-0.0264,-0.0281,-0.034,-0.0371,-0.042,-0.0456,-0.0508,-0.0545,-0.0572,-0.0587,-0.0638,-0.0613,-0.0653,-0.0637,-0.0674,-0.0677,-0.068,-0.0666,-0.0668,-0.0652,-0.0652,-0.0652,0,-0.0068,-0.0103,-0.0152,-0.0182,-0.0206,-0.0267,-0.0287,-0.0324,-0.0393,-0.0408,-0.0438,-0.0521,-0.0555,-0.0591,-0.062,-0.0645,-0.0646,-0.0604,-0.0677,-0.068,-0.0682,-0.0668,-0.0669,-0.0653,-0.0653,-0.0653,-0.0653,0,-0.0078,-0.0108,-0.0124,-0.0181,-0.0211,-0.0243,-0.0292,-0.0328,-0.0373,-0.0405,-0.0463,-0.0527,-0.0565,-0.0602,-0.0625,-0.0664,-0.0651,-0.0681,-0.0648,-0.0687,-0.0671,-0.0672,-0.0655,-0.0654,-0.0654,-0.0654,0,0,-0.0047,-0.0115,-0.0125,-0.0142,-0.0215,-0.0236,-0.0272,-0.031,-0.0321,-0.04,-0.0413,-0.0504,-0.0537,-0.0557,-0.0605,-0.0646,-0.0682,-0.0668,-0.067,-0.0631,-0.0725,-0.0613,-0.0603,-0.0729,-0.0729,-0.073,-0.0702,0,-0.0042,-0.0078,-0.0118,-0.0148,-0.0167,-0.022,-0.0238,-0.0283,-0.0322,-0.0349,-0.0421,-0.0456,-0.0519,-0.0543,-0.0597,-0.066,-0.0686,-0.0683,-0.0711,-0.071,-0.0588,-0.0602,-0.0559,-0.0522,-0.0703,-0.0703,-0.0703,0,-0.0046,-0.0067,-0.0088,-0.0122,-0.0134,-0.0155,-0.0185,-0.0211,-0.0257,-0.0286,-0.0335,-0.0381,-0.0445,-0.0501,-0.0598,-0.0595,-0.0649,-0.0699,-0.07,-0.0582,-0.0599,-0.0517,-0.0517,-0.0704,-0.0704,-0.0704,-0.0704,0,-0.0006,-0.0049,-0.0058,-0.0076,-0.012,-0.0129,-0.015,-0.0191,-0.0201,-0.0237,-0.0242,-0.0323,-0.0355,-0.045,-0.0544,-0.0578,-0.0632,-0.0696,-0.0636,-0.0627,-0.0583,-0.0569,-0.0751,-0.0751,-0.0751,-0.0751,-0.0751,0,0.0009,-0.0003,-0.0037,-0.0045,-0.0043,-0.0088,-0.0088,-0.0114,-0.014,-0.014,-0.0202,-0.021,-0.0349,-0.0397,-0.0501,-0.0539,-0.0596,-0.0604,-0.0611,-0.0585,-0.0572,-0.0729,-0.0727,-0.075,-0.075,-0.075,-0.075,0,0.0038,0.0012,0.0006,-0.0021,-0.0028,-0.0028,-0.0051,-0.0046,-0.0069,-0.0067,-0.0072,-0.0125,-0.0177,-0.0277,-0.0406,-0.0452,-0.0524,-0.0524,-0.0446,-0.0443,-0.0505,-0.0504,-0.0455,-0.0451,-0.0447,-0.0444,-0.0442,0,0.0046,0.0048,0.0032,0.0038,0.0023,0.0018,0.0018,-0.0013,-0.0008,-0.0017,-0.0008,-0.0031,-0.0047,-0.0134,-0.0205,-0.0286,-0.0412,-0.0303,-0.0363,-0.0461,-0.0475,-0.048,-0.0484,-0.0321,-0.0318,-0.0315,-0.0313,0,0.0077,0.0071,0.0069,0.0081,0.0084,0.0093,0.0089,0.0096,0.0071,0.009,0.0101,0.0099,0.0071,0.0017,-0.0039,-0.0103,-0.0284,-0.0245,-0.0392,-0.0381,-0.0327,-0.0342,-0.0353,-0.0289,-0.0291,-0.0293,-0.0294,-0.0295,0.0103,0.0115,0.0117,0.0127,0.014,0.0158,0.0169,0.0178,0.02,0.0226,0.0209,0.0201,0.0119,0.0074,0.0028,-0.0013,-0.0053,-0.0142,-0.0155,-0.0169,-0.0138,-0.0078,0.0015,0.0014,0.0014,0.0013,0.0013,0,0.0139,0.0142,0.0163,0.0181,0.021,0.0198,0.0214,0.0236,0.0274,0.028,0.0318,0.022,0.0214,0.0099,0.01,0.0092,0.0045,0.004,-0.006,-0.008,-0.0098,-0.007,0.0104,0.0104,0.0103,0.0103,0,0,0.0163,0.018,0.0189,0.0238,0.0252,0.028,0.029,0.0332,0.0328,0.0314,0.0281,0.032,0.0172,0.0145,0.0129,0.0111,0.0017,0.012,0.0059,-0.0071,-0.009,-0.0176,-0.0147,0,0,0,0,0]}],[{"header":{"parameterUnit":"m.s-1","parameterCategory":2,"la1":30.2991,"la2":30.254,"lo1":-89.0895,"lo2":-89.0444,"dy":0.0017,"dx":0.0017,"nx":28,"ny":28,"refTime":"2024-08-08T09:00:00:Z","depth":"4","parameterNumber":2,"parameterNumberName":"U-component_of_CURRENTS"},"data":[0,0,0,0,0,0,0,0,0,0,0,0,0,0,0,0,0,0,0,0,0,0,0,0,0,0,0,0,0,0,0,0,0,0,0,0,0,0,0,0,0,0,0,0,0,0,0,0,0,0,0,0,0,0,0,0,0,0,-0.0503,-0.0503,0,-0.0567,-0.0568,-0.0569,-0.0611,-0.0611,-0.0611,-0.0611,-0.0661,-0.0662,-0.0664,0,0,0,0,0,0,0,0,0,0,0,0,0,-0.048,-0.048,-0.0503,-0.0503,-0.0504,-0.0567,-0.0568,-0.0569,-0.0611,-0.0611,-0.0611,-0.0611,-0.0661,-0.0662,-0.0664,0,0,0,0,0,0,0,0,0,0,0,0,0,-0.0513,-0.048,-0.0503,-0.0531,-0.0534,-0.0567,-0.0568,-0.0569,-0.0611,-0.0611,-0.0611,-0.0611,-0.066,-0.0662,-0.0664,-0.0673,0,0,-0.067,-0.0671,0,0,0,0,0,0,0,0,-0.0511,-0.0514,-0.0526,-0.0529,-0.0532,-0.0579,-0.0578,-0.0603,-0.0611,-0.0584,-0.0611,-0.0611,-0.0631,-0.0635,-0.065,-0.0676,-0.0678,-0.067,-0.0671,-0.0672,-0.0672,0,0,0,0,0,0,0,-0.0509,-0.0512,-0.0531,-0.0527,-0.0531,-0.0562,-0.0566,-0.0583,-0.0608,-0.0586,-0.0589,-0.0593,-0.0633,-0.0649,-0.0652,-0.0679,-0.067,-0.0672,-0.0673,-0.0673,-0.0755,-0.0756,0,0,0,0,0,0,-0.0493,-0.051,-0.0528,-0.0532,-0.0519,-0.0562,-0.0567,-0.0566,-0.0608,-0.0614,-0.0592,-0.0594,-0.0645,-0.065,-0.0654,-0.0708,-0.0672,-0.0674,-0.0675,-0.0754,-0.0755,-0.0756,0,0,0,0,0,0,-0.0492,-0.0494,-0.0526,-0.0521,-0.0527,-0.0561,-0.056,-0.0567,-0.0593,-0.0612,-0.0618,-0.0612,-0.0646,-0.0651,-0.0677,-0.0709,-0.0674,-0.0676,-0.0753,-0.0754,-0.0756,-0.0791,0,0,0,0,0,0,-0.0491,-0.0493,-0.05,-0.052,-0.0527,-0.0548,-0.056,-0.0568,-0.0593,-0.0597,-0.0631,-0.0635,-0.0646,-0.0674,-0.0679,-0.0711,-0.0678,-0.0752,-0.0754,-0.0755,-0.0788,-0.0793,-0.0797,0,0,0,0,0,-0.049,-0.0497,-0.05,-0.0503,-0.0531,-0.0548,-0.0555,-0.0581,-0.0594,-0.0606,-0.063,-0.0635,-0.069,-0.0676,-0.0682,-0.0715,-0.0751,-0.0753,-0.0755,-0.0786,-0.0792,-0.0797,0,0,0,0,0,0,-0.0497,-0.0503,-0.0506,-0.0516,-0.053,-0.0554,-0.0574,-0.0587,-0.0617,-0.0625,-0.0643,-0.0649,-0.0683,-0.0691,-0.0676,-0.0744,-0.0724,-0.0727,-0.0745,-0.0751,-0.0756,-0.0769,-0.0679,0,0,0,0,0,-0.0498,-0.0505,-0.0512,-0.0524,-0.053,-0.0553,-0.0569,-0.0581,-0.0604,-0.0619,-0.064,-0.0668,-0.0696,-0.0716,-0.0734,-0.077,-0.0764,-0.0797,-0.0801,-0.0805,-0.082,-0.0847,-0.0855,-0.0764,-0.0764,-0.0764,0,0,-0.0507,-0.051,-0.0517,-0.0526,-0.0543,-0.0554,-0.0564,-0.0586,-0.0603,-0.0618,-0.0656,-0.0679,-0.0706,-0.0747,-0.0765,-0.076,-0.0819,-0.0808,-0.0811,-0.0824,-0.085,-0.0859,-0.0867,-0.0766,-0.0765,-0.0765,0,0,-0.0521,-0.0528,-0.0534,-0.0541,-0.0557,-0.0569,-0.0573,-0.0597,-0.0618,-0.065,-0.0669,-0.0704,-0.0749,-0.0775,-0.0795,-0.0834,-0.0836,-0.0853,-0.0899,-0.0925,-0.0933,-0.094,-0.0903,-0.0907,-0.0865,-0.0865,-0.0865,0,-0.0533,-0.0535,-0.0542,-0.0546,-0.0558,-0.0573,-0.0584,-0.0605,-0.0636,-0.0657,-0.0664,-0.0749,-0.0762,-0.0824,-0.0849,-0.0845,-0.0851,-0.0875,-0.0931,-0.0938,-0.0945,-0.0906,-0.091,-0.0867,-0.0866,-0.0866,-0.0866,0,-0.0541,-0.0548,-0.0555,-0.0562,-0.0578,-0.059,-0.0607,-0.063,-0.0658,-0.0682,-0.0746,-0.078,-0.0843,-0.085,-0.087,-0.0937,-0.0919,-0.0925,-0.0916,-0.0956,-0.0912,-0.0915,-0.0869,-0.0869,-0.0868,-0.0868,0,0,-0.0549,-0.0558,-0.0561,-0.0566,-0.0585,-0.0596,-0.0627,-0.0658,-0.0697,-0.0735,-0.0801,-0.0852,-0.0897,-0.0924,-0.0956,-0.0984,-0.1016,-0.0996,-0.0996,-0.0957,-0.1047,-0.0942,-0.0934,-0.1054,-0.1055,-0.1057,-0.0983,0,-0.0554,-0.0558,-0.057,-0.0588,-0.0591,-0.0616,-0.065,-0.0682,-0.0728,-0.0793,-0.084,-0.0913,-0.0919,-0.098,-0.1012,-0.1021,-0.1034,-0.1033,-0.1018,-0.1016,-0.0917,-0.0938,-0.1062,-0.0985,-0.0986,-0.0986,-0.0987,0,-0.0551,-0.0554,-0.0567,-0.0597,-0.0606,-0.0634,-0.0696,-0.0734,-0.0814,-0.0864,-0.0948,-0.0988,-0.1053,-0.1061,-0.1085,-0.1097,-0.109,-0.1075,-0.1072,-0.0971,-0.0918,-0.0948,-0.0992,-0.0991,-0.0991,-0.0991,-0.099,0,-0.0535,-0.0554,-0.0566,-0.0572,-0.0608,-0.0644,-0.0692,-0.0763,-0.0813,-0.0936,-0.0986,-0.1063,-0.1112,-0.1132,-0.1108,-0.1121,-0.1109,-0.1108,-0.0987,-0.0976,-0.1077,-0.1071,-0.1128,-0.1128,-0.1129,-0.1129,-0.1129,0,-0.0521,-0.0531,-0.0567,-0.057,-0.0606,-0.0658,-0.073,-0.0791,-0.0905,-0.0957,-0.1049,-0.108,-0.1143,-0.1136,-0.1125,-0.1049,-0.1116,-0.0993,-0.0965,-0.1085,-0.1082,-0.1076,-0.107,-0.1126,-0.1126,-0.1127,-0.1128,0,-0.0493,-0.0512,-0.0522,-0.0572,-0.0594,-0.0635,-0.0745,-0.079,-0.0916,-0.0997,-0.1042,-0.1102,-0.106,-0.1066,-0.1059,-0.1035,-0.0991,-0.095,-0.1039,-0.1016,-0.0829,-0.0827,-0.08,-0.0796,-0.0792,-0.0789,-0.0787,0,-0.0476,-0.0477,-0.0512,-0.052,-0.0549,-0.062,-0.0655,-0.0789,-0.0829,-0.0966,-0.0971,-0.0991,-0.1,-0.0871,-0.0908,-0.0853,-0.085,-0.0845,-0.088,-0.0828,-0.0803,-0.0806,-0.0808,-0.0782,-0.0781,-0.078,-0.0779,0,-0.044,-0.0457,-0.0464,-0.0478,-0.051,-0.0535,-0.0603,-0.0628,-0.0765,-0.0879,-0.0865,-0.0869,-0.0804,-0.0762,-0.0735,-0.0707,-0.0868,-0.0809,-0.0817,-0.085,-0.0805,-0.0785,-0.0791,-0.0767,-0.0769,-0.077,-0.0771,0,-0.0418,-0.0411,-0.0422,-0.0434,-0.045,-0.0438,-0.0486,-0.0507,-0.057,-0.072,-0.069,-0.0713,-0.0756,-0.0681,-0.0653,-0.062,-0.0608,-0.0629,-0.0645,-0.0659,-0.0654,-0.058,-0.0448,0,0,0,0,0,-0.0389,-0.0378,-0.0377,-0.037,-0.0375,-0.0386,-0.0429,-0.0477,-0.059,-0.0544,-0.0632,-0.0567,-0.0547,-0.0542,-0.047,-0.0579,-0.0608,-0.05,-0.0639,-0.0702,-0.0715,-0.0728,0,0,0,0,0,0,-0.0369,-0.0367,-0.0361,-0.0313,-0.0291,-0.029,-0.0307,-0.0379,-0.0343,-0.046,-0.0401,-0.0537,-0.0462,-0.0553,-0.0455,-0.0462,-0.0541,-0.0528,-0.0527,-0.0694,-0.0706,-0.0717,-0.0735,0,0,0,0,0]},{"header":{"parameterUnit":"m.s-1","parameterCategory":2,"la1":30.2991,"la2":30.254,"lo1":-89.0895,"lo2":-89.0444,"dy":0.0017,"dx":0.0017,"nx":28,"ny":28,"refTime":"2024-08-08T09:00:00:Z","depth":"4","parameterNumber":3,"parameterNumberName":"V-component_of_CURRENTS"},"data":[0,0,0,0,0,0,0,0,0,0,0,0,0,0,0,0,0,0,0,0,0,0,0,0,0,0,0,0,0,0,0,0,0,0,0,0,0,0,0,0,0,0,0,0,0,0,0,0,0,0,0,0,0,0,0,0,0,0,0.0197,0.0196,0,0.0157,0.0156,0.0156,0.014,0.014,0.0141,0.0141,0.0126,0.0126,0.0125,0,0,0,0,0,0,0,0,0,0,0,0,0,0.0231,0.023,0.0197,0.0196,0.0196,0.0157,0.0156,0.0156,0.014,0.014,0.0141,0.0141,0.0127,0.0126,0.0125,0,0,0,0,0,0,0,0,0,0,0,0,0,0.0205,0.023,0.0197,0.0184,0.0183,0.0157,0.0156,0.0155,0.014,0.014,0.0141,0.0141,0.0127,0.0126,0.0125,0.0114,0,0,0.0123,0.0122,0,0,0,0,0,0,0,0,0.0207,0.0204,0.0186,0.0185,0.0183,0.0155,0.0163,0.0143,0.014,0.0155,0.0141,0.0141,0.0139,0.0137,0.0127,0.0113,0.0113,0.0123,0.0122,0.0122,0.0121,0,0,0,0,0,0,0,0.0208,0.0205,0.018,0.0186,0.0184,0.0171,0.0168,0.0159,0.0146,0.0154,0.0153,0.015,0.0138,0.0128,0.0127,0.0113,0.0123,0.0122,0.0121,0.0121,0.0092,0.0092,0,0,0,0,0,0,0.0216,0.0207,0.0181,0.0179,0.0197,0.017,0.0166,0.0163,0.0145,0.0143,0.015,0.0149,0.0129,0.0128,0.0126,0.0125,0.0122,0.0121,0.012,0.0093,0.0092,0.0092,0,0,0,0,0,0,0.0217,0.0214,0.0183,0.0193,0.0188,0.0169,0.0165,0.0162,0.0159,0.0142,0.014,0.0151,0.0129,0.0127,0.0112,0.0124,0.0121,0.012,0.0093,0.0093,0.0092,0.0115,0,0,0,0,0,0,0.0218,0.0215,0.0213,0.0193,0.0188,0.0172,0.0165,0.0161,0.0156,0.0156,0.0142,0.014,0.0129,0.0113,0.0111,0.0123,0.0119,0.0093,0.0093,0.0092,0.0115,0.0116,0.0117,0,0,0,0,0,0.022,0.0214,0.0213,0.021,0.0187,0.0172,0.0168,0.0155,0.0156,0.0154,0.0137,0.0141,0.0109,0.0111,0.0109,0.0122,0.0093,0.0093,0.0092,0.0114,0.0116,0.0117,0,0,0,0,0,0,0.022,0.0211,0.021,0.02,0.0191,0.017,0.0163,0.016,0.0145,0.0144,0.0132,0.0129,0.0121,0.0113,0.0117,0.0111,0.0105,0.0104,0.0122,0.0123,0.0124,0.0122,0.0118,0,0,0,0,0,0.0222,0.0217,0.0208,0.0198,0.0196,0.0183,0.0176,0.017,0.0155,0.0149,0.0139,0.0127,0.0115,0.0113,0.0099,0.0094,0.0106,0.0102,0.0102,0.0103,0.0099,0.0139,0.0144,0.009,0.009,0.009,0,0,0.0218,0.0212,0.0208,0.0199,0.0189,0.0173,0.0179,0.017,0.0157,0.015,0.013,0.0128,0.0112,0.0103,0.0101,0.0101,0.0122,0.0103,0.0104,0.0098,0.014,0.0145,0.015,0.009,0.009,0.009,0,0,0.0198,0.0204,0.0191,0.0185,0.0177,0.017,0.0172,0.016,0.0158,0.0142,0.0134,0.0135,0.0117,0.0109,0.0103,0.0099,0.0123,0.0105,0.0113,0.0153,0.0158,0.0163,0.018,0.0187,0.011,0.011,0.011,0,0.0193,0.0173,0.0185,0.0168,0.0155,0.017,0.0147,0.0147,0.0131,0.0124,0.0138,0.0115,0.0116,0.0101,0.0109,0.0103,0.0127,0.0113,0.0157,0.0162,0.0166,0.0183,0.019,0.0111,0.0111,0.011,0.011,0,0.0159,0.0145,0.0137,0.0121,0.0113,0.0099,0.0101,0.0099,0.0107,0.0105,0.0102,0.0108,0.0099,0.0109,0.0112,0.014,0.0145,0.0154,0.016,0.0174,0.0189,0.0196,0.0112,0.0112,0.0112,0.0111,0,0,0.014,0.0117,0.0114,0.0093,0.0086,0.0072,0.0062,0.0049,0.0036,0.0058,0.0045,0.006,0.0086,0.0081,0.0099,0.0142,0.0206,0.0173,0.0175,0.0199,0.0291,0.0202,0.02,0.0239,0.024,0.0241,0.0288,0,0.0107,0.0066,0.0063,0.0019,-0.0002,0.0004,-0.0013,-0.0016,-0.0008,-0.0009,0.0029,0.0031,0.0071,0.0084,0.0134,0.0182,0.0225,0.0191,0.0265,0.0266,0.0194,0.0206,0.0245,0.0293,0.0295,0.0296,0.0297,0,0.0072,0.0048,0.0002,-0.0038,-0.0047,-0.0069,-0.0095,-0.0104,-0.0092,-0.0079,-0.0051,-0.0018,0.004,0.0082,0.0186,0.0171,0.0236,0.028,0.0283,0.0194,0.0189,0.0276,0.0309,0.0308,0.0307,0.0306,0.0305,0,0.0047,0.0002,-0.0037,-0.005,-0.0086,-0.0109,-0.0122,-0.0128,-0.0138,-0.0108,-0.0103,-0.0039,0.0002,0.0099,0.0194,0.0211,0.0302,0.0331,0.0302,0.0296,0.0355,0.035,0.0409,0.0409,0.0409,0.0408,0.0408,0,0.001,-0.0023,-0.0052,-0.0076,-0.0128,-0.0136,-0.018,-0.0181,-0.0181,-0.0194,-0.0127,-0.0125,0.002,0.0083,0.018,0.0244,0.0294,0.0297,0.0303,0.0361,0.0355,0.036,0.0353,0.041,0.041,0.0409,0.0409,0,-0.0016,-0.0033,-0.0081,-0.0124,-0.0142,-0.0172,-0.0214,-0.0239,-0.0227,-0.0237,-0.0218,-0.0163,-0.0091,0.0014,0.0152,0.0205,0.0284,0.0294,0.0322,0.0329,0.026,0.0254,0.028,0.0277,0.0275,0.0273,0.0271,0,-0.0037,-0.0061,-0.0112,-0.0141,-0.0164,-0.0209,-0.0242,-0.0254,-0.0268,-0.0275,-0.0275,-0.0226,-0.0181,-0.006,0.0045,0.0182,0.0204,0.0253,0.0286,0.0244,0.0248,0.0246,0.0243,0.0267,0.0267,0.0266,0.0266,0,-0.0075,-0.0083,-0.0118,-0.0168,-0.021,-0.0264,-0.0301,-0.0313,-0.0321,-0.0321,-0.031,-0.026,-0.0211,-0.0101,-0.0012,0.0092,0.0229,0.0229,0.0236,0.0268,0.0229,0.0235,0.0235,0.0258,0.0259,0.026,0.026,0,-0.0096,-0.0121,-0.0152,-0.0195,-0.0247,-0.0293,-0.0318,-0.0335,-0.0348,-0.0334,-0.0345,-0.0289,-0.0245,-0.0153,-0.0074,0.0009,0.0047,0.0112,0.0127,0.0136,0.0071,-0.0001,-0.0042,0,0,0,0,0,-0.0118,-0.0139,-0.0179,-0.0226,-0.0272,-0.0298,-0.0346,-0.036,-0.0369,-0.0357,-0.0343,-0.03,-0.0216,-0.0188,-0.0117,-0.012,0.0055,-0.0036,0.0137,0.0213,0.0222,0.016,0,0,0,0,0,0,-0.0138,-0.0169,-0.0178,-0.0232,-0.0261,-0.0318,-0.0345,-0.0357,-0.0341,-0.0339,-0.029,-0.0278,-0.019,-0.0243,-0.011,-0.0095,0.0025,0.0001,0.0003,0.0207,0.0216,0.0223,0.0163,0,0,0,0,0]}]]